New Season SmallBallMall
 
 
 
Home Forum Leagues Seasons Search Help
 

 
Husker Power (Ket)
long time ago
 
ID#: 545087 since: 4/7/2006 Honor Rating: 7.8
United States
 

Player Pos Games AB Hits AVG 1B 2B 3B HR RBI SO ERA
Super Rookie CF 136 553 167 .301 117 33 37 1 56 0 -
Tommie Frazier* P 86 280 42 .150 39 6 4 0 13 994 6.72
Ahman Green SS 100 384 95 .247 102 13 1 8 38 0 -
Turner Gill 3B 128 497 142 .285 136 12 0 20 67 0 -
Eric Crouch LF 104 375 81 .216 74 12 0 9 34 0 -
Mike Rozier 2B 115 436 117 .268 93 39 9 3 33 0 -
Johnny Rodgers C 116 434 108 .248 110 16 2 9 38 14 -
Lawrence Phillips SS 137 529 134 .253 155 11 3 2 37 0 -
Mike Brown RF 142 574 150 .261 131 24 8 15 56 0 -
Dave Rimington* P 70 244 43 .176 34 11 2 3 21 942 8.75
Bobby Newcombe 1B 114 473 118 .249 115 20 4 7 43 0 -
Barrett Ruud 1B 84 311 82 .263 88 10 0 3 27 0 -
null

Big League Ranking: 380 W/L: .324 GP: 148
  Pro League Ranking: n/a W/L: .66 GP: n/a
   To view full league stats, click on the league name.
 
Recent Games
League Date Opponent Id Letters Score W/L
BIG 3/17/21 Hudlies 25669 Ket 0:2 L
BIG 3/17/21 Rat Pack 25685 Ket 1:6 L
BIG 3/18/21 Hudlies 25701 Ket 0:1 L
BIG 3/18/21 MW Wildcats 25715 Ket 6:0 W
BIG 3/20/21 Hudlies 25867 Ket 1:0 L
BIG 3/20/21 Hudlies 25868 Ket 2:4 L
BIG 3/20/21 MW Wildcats 25875 Ket 2:0 W
BIG 3/20/21 MW Wildcats 25881 Ket 7:2 L
BIG 3/20/21 MW Wildcats 25885 Ket 4:2 W
BIG 3/21/21 Hudlies 26442 Ket 1:0 L
BIG 3/21/21 Hudlies 26443 Ket 5:0 W
BIG 3/21/21 The Sandlot Bully 29451 RGB 3:1 L
BIG 3/21/21 UC Santa Cruz Banana Slugs 29457 N*S 3:2 L
BIG 3/21/21 MW Wildcats 29468 Ket 3:1 L
BIG 3/21/21 MW Wildcats 29469 Ket 1:0 W
BIG 3/21/21 Birdbrains 29486 GC 0:3 W
BIG 3/22/21 Birdbrains 32533 GC 0:3 W
BIG 3/22/21 The Wolfpack 32548 N*S 4:0 L
BIG 3/23/21 The Daddylonians )TUS( 32574 RGB 2:1 L
BIG 3/23/21 Alabama Taters (SBD) 32584 mcg 1:0 L
BIG 3/23/21 Dark Warriors 32592 666 1:0 L
BIG 3/23/21 Hudlies 32595 Ket 1:0 L
BIG 3/23/21 Hudlies 32596 Ket 0:2 L
BIG 3/23/21 MW Wildcats 32601 Ket 5:4 L
BIG 3/23/21 MW Wildcats 32602 Ket 0:9 L
BIG 3/24/21 MW Wildcats 32641 Ket 7:3 L
BIG 3/25/21 PULUTAN 32667 PUL 3:4 L
BIG 3/25/21 The Daddylonians 32677 RGB 0:1 W
BIG 3/25/21 Rat Pack 32682 Ket 2:0 L
BIG 3/25/21 Rat Pack 32683 Ket 3:7 L
BIG 3/25/21 The Sandlot Bully 32686 RGB 6:0 L
BIG 3/25/21 Birdbrains 32691 GC 0:3 W
BIG 3/26/21 Small Ballers 32716 SBS 6:1 W
BIG 3/26/21 The Sandlot Bully 32732 RGB 5:3 L
BIG 3/26/21 Hudlies 32738 Ket 1:0 L
BIG 3/26/21 Hudlies 32739 Ket 4:2 W
BIG 3/27/21 PULUTAN 32765 PUL 2:12 L
BIG 3/28/21 Birdbrains 32814 GC 1:2 W
BIG 3/28/21 Dark Warriors 32820 666 0:1 W
BIG 3/28/21 MW Wildcats 32822 Ket 3:2 W
BIG 3/28/21 MW Wildcats 32823 Ket 3:5 W
BIG 3/28/21 South Siders (SBD) 32829 mcg 7:6 L
BIG 3/29/21 PULUTAN 32835 PUL 3:4 L
BIG 3/29/21 The Daddylonians 32855 RGB 1:0 L
BIG 3/30/21 MW Wildcats 32909 Ket 2:1 W
BIG 3/30/21 MW Wildcats 32910 Ket 3:1 L
BIG 3/31/21 Kansas Jayhawks 32949 TRG 0:4 L
BIG 4/1/21 MW Wildcats 32990 Ket 3:10 W
BIG 4/1/21 MW Wildcats 32991 Ket 0:4 L
BIG 4/2/21 Pinheiros Pirates 33039 PQP 7:2 W
BIG 4/4/21 Hudlies 33543 Ket 2:5 L
BIG 4/4/21 River Boat Gamblers (AcA) 33551 (Q) 7:1 L
BIG 4/5/21 Small Ballers 33556 SBS 5:8 L
BIG 4/7/21 MW Wildcats 33596 Ket 3:5 W
BIG 4/7/21 MW Wildcats 33597 Ket 3:7 L
BIG 4/13/21 Pinheiros Pirates 33668 PQP 9:7 W
BIG 4/15/21 Pinheiros Pirates 33684 PQP 2:4 L
BIG 4/17/21 Hudlies 33700 Ket 0:8 L
BIG 4/19/21 MW Wildcats 34093 Ket 2:4 L
BIG 4/19/21 Rat Pack 34097 Ket 5:1 L
BIG 4/29/21 Small Ballers 34383 SBS 11:13 L
BIG 5/1/21 Maple Heights Mustangs 34445 MHM 1:3 L
User League Games
To view the opposing team's stats, click on the team name.
     
 

Privacy Policy   |    Contact Us   |    User Agreement   |    Code of Conduct